NV6B Weather Reports


Display with metric or nautical units.
time (UTC)temp
F
wind
direction
speed
MPH
gust
MPH
rain 1hr
in
rain 24hr
in
rain mn
in
humidity
%
barometer
mb
20260510210707 91 87 10.0 11.0 0.00 0.00 0.00 25 1009.7
20260510205707 90 144 10.0 11.0 0.00 0.00 0.00 24 1009.9
20260510204707 89 96 1.0 3.0 0.00 0.00 0.00 25 1010.0
20260510203707 90 122 4.0 12.0 0.00 0.00 0.00 25 1010.2
20260510202706 90 100 9.0 14.0 0.00 0.00 0.00 27 1010.4
20260510201707 89 131 6.0 8.0 0.00 0.00 0.00 26 1010.6
20260510200727 88 130 6.0 14.0 0.00 0.00 0.00 28 1010.7
20260510195706 88 146 6.0 14.0 0.00 0.00 0.00 27 1010.9
20260510194706 87 83 6.0 9.0 0.00 0.00 0.00 28 1011.1
20260510193706 86 129 7.0 13.0 0.00 0.00 0.00 28 1011.4
20260510163724 71 115 3.0 13.0 0.00 0.00 0.00 37 1014.0
20260510162704 70 150 10.0 15.0 0.00 0.00 0.00 38 1014.2
20260510161704 70 133 4.0 9.0 0.00 0.00 0.00 39 1014.3
20260510160704 69 93 8.0 12.0 0.00 0.00 0.00 41 1014.4
20260510155724 68 112 3.0 11.0 0.00 0.00 0.00 42 1014.4
20260510154703 67 136 7.0 9.0 0.00 0.00 0.00 44 1014.4
20260510153704 66 145 5.0 9.0 0.00 0.00 0.00 47 1014.4
20260510152703 64 133 3.0 10.0 0.00 0.00 0.00 51 1014.6
20260510151703 63 103 3.0 9.0 0.00 0.00 0.00 52 1014.8
20260510115701 48 72 0.0 0.0 0.00 0.00 0.00 71 1013.9
20260510114702 48 72 0.0 0.0 0.00 0.00 0.00 72 1014.0
20260510081659 53 63 0.0 0.0 0.00 0.00 0.00 59 1013.4
20260510080659 53 16 1.0 2.0 0.00 0.00 0.00 59 1013.4
20260510075659 53 16 0.0 0.0 0.00 0.00 0.00 60 1013.5
20260510074659 53 16 0.0 0.0 0.00 0.00 0.00 58 1013.4
20260510043657 61 4 0.0 0.0 0.00 0.00 0.00 48 1013.2
20260510042657 62 4 0.0 0.0 0.00 0.00 0.00 49 1013.3
20260510041657 62 4 0.0 0.0 0.00 0.00 0.00 46 1013.2
20260510040656 63 4 0.0 0.0 0.00 0.00 0.00 44 1013.2
20260510035656 64 4 0.0 0.0 0.00 0.00 0.00 43 1013.0
20260510034656 65 4 0.0 0.0 0.00 0.00 0.00 43 1012.9
20260510033716 66 4 0.0 0.0 0.00 0.00 0.00 41 1012.8
20260510032656 67 4 0.0 2.0 0.00 0.00 0.00 41 1012.7
20260510031656 68 4 0.0 0.0 0.00 0.00 0.00 39 1012.7
20260510030656 69 4 0.0 0.0 0.00 0.00 0.00 38 1012.6
20260510025656 70 4 0.0 1.0 0.00 0.00 0.00 36 1012.5
20260510024656 71 4 0.0 0.0 0.00 0.00 0.00 35 1012.4
20260510023655 72 4 0.0 3.0 0.00 0.00 0.00 35 1012.4
20260510022655 72 5 2.0 5.0 0.00 0.00 0.00 33 1012.3
20260510021656 73 334 4.0 5.0 0.00 0.00 0.00 33 1012.4
20260510020655 74 350 1.0 3.0 0.00 0.00 0.00 32 1012.4
20260510015655 74 8 5.0 6.0 0.00 0.00 0.00 31 1012.4
20260510014655 74 343 3.0 6.0 0.00 0.00 0.00 30 1012.5
20260510013655 75 325 1.0 8.0 0.00 0.00 0.00 30 1012.5
20260510012655 75 355 3.0 10.0 0.00 0.00 0.00 30 1012.5
20260510011655 75 8 0.0 5.0 0.00 0.00 0.00 29 1012.6
20260510010655 76 309 3.0 10.0 0.00 0.00 0.00 30 1012.6
20260510005655 76 339 1.0 8.0 0.00 0.00 0.00 29 1012.5